Powrót do katalogu

STARLINK-36781

AktywnyŁącznośćVLEO
NORAD 67931·PAYLOAD·🇺🇸 United States

Wystrzelony Feb 22, 2026 z Vandenberg Space Force Base

Loading…

Następne Przeloty (najbliższe 24 godziny)

TLE

ŚwieżeSource: CelesTrak SupGP

Epoka: Sep 14, 2026, 21:08 UTC

1 67931C 26036AD  26257.88104167  .00027123  00000+0  98274-3 0  2574
2 67931  43.0016 256.5578 0001416 264.1941 296.9686 15.27552811    13

Śledź STARLINK-36781 w czasie rzeczywistym z AllMySat

Download on the App Store